| time (UTC) | temp C | wind direction | speed KPH | gust KPH | rain 1hr cm | rain 24hr cm | rain mn cm | humidity % | barometer mb |
| 20260510190625 | 24 | 165 | 3.2 | 9.7 | 0.00 | 0.20 | 0.00 | 53 | 1003.9 |
| 20260510190133 | 23 | 216 | 1.6 | 8.0 | 0.00 | 0.20 | 0.00 | 52 | 1003.9 |
| 20260510185618 | 23 | 348 | 3.2 | 6.4 | 0.00 | 0.20 | 0.00 | 55 | 1003.9 |
| 20260510185120 | 23 | 185 | 4.8 | 16.1 | 0.00 | 0.20 | 0.00 | 53 | 1004.0 |
| 20260510184607 | 23 | 174 | 3.2 | 16.1 | 0.00 | 0.20 | 0.00 | 53 | 1004.0 |
| 20260510184108 | 24 | 255 | 3.2 | 12.9 | 0.00 | 0.20 | 0.00 | 53 | 1004.0 |
| 20260510183613 | 24 | 233 | 3.2 | 12.9 | 0.00 | 0.20 | 0.00 | 53 | 1004.0 |
| 20260510183100 | 24 | 187 | 3.2 | 16.1 | 0.00 | 0.20 | 0.00 | 55 | 1004.0 |
| 20260510182552 | 23 | 221 | 1.6 | 12.9 | 0.00 | 0.20 | 0.00 | 55 | 1004.1 |
| 20260510182049 | 23 | 198 | 1.6 | 12.9 | 0.00 | 0.20 | 0.00 | 59 | 1004.0 |
| 20260510181548 | 23 | 180 | 1.6 | 11.3 | 0.00 | 0.20 | 0.00 | 56 | 1004.1 |
| 20260510181043 | 23 | 203 | 1.6 | 9.7 | 0.00 | 0.20 | 0.00 | 56 | 1004.0 |
| 20260510180524 | 23 | 338 | 0.0 | 1.6 | 0.00 | 0.20 | 0.00 | 59 | 1004.0 |
| 20260510180033 | 23 | 194 | 0.0 | 11.3 | 0.00 | 0.23 | 0.00 | 59 | 1004.0 |
| 20260510174925 | 22 | 37 | 3.2 | 9.7 | 0.00 | 0.23 | 0.00 | 60 | 1004.1 |
| 20260510174422 | 22 | 273 | 3.2 | 11.3 | 0.00 | 0.23 | 0.00 | 59 | 1004.2 |
| 20260510173914 | 22 | 227 | 1.6 | 11.3 | 0.00 | 0.23 | 0.00 | 60 | 1004.1 |
| 20260510173417 | 22 | 206 | 3.2 | 14.5 | 0.00 | 0.23 | 0.00 | 60 | 1004.1 |
| 20260510172911 | 22 | 229 | 4.8 | 14.5 | 0.00 | 0.23 | 0.00 | 59 | 1003.9 |
| 20260510172411 | 23 | 226 | 4.8 | 14.5 | 0.00 | 0.23 | 0.00 | 57 | 1003.9 |
| 20260510171910 | 23 | 220 | 3.2 | 14.5 | 0.00 | 0.23 | 0.00 | 57 | 1003.9 |
| 20260510171408 | 23 | 349 | 1.6 | 9.7 | 0.00 | 0.23 | 0.00 | 60 | 1003.9 |
| 20260510170241 | 22 | 268 | 1.6 | 0.0 | 0.00 | 0.23 | 0.00 | 63 | 1003.9 |
| 20260510165729 | 22 | 265 | 1.6 | 12.9 | 0.00 | 0.23 | 0.00 | 64 | 1004.1 |
| 20260510165225 | 22 | 244 | 1.6 | 12.9 | 0.00 | 0.23 | 0.00 | 62 | 1004.1 |
| 20260510164724 | 22 | 330 | 1.6 | 8.0 | 0.00 | 0.23 | 0.00 | 65 | 1004.1 |
| 20260510164222 | 22 | 212 | 0.0 | 0.0 | 0.00 | 0.23 | 0.00 | 64 | 1004.1 |
| 20260510162440 | 21 | 221 | 1.6 | 11.3 | 0.00 | 0.23 | 0.00 | 66 | 1004.3 |
| 20260510161931 | 21 | 191 | 1.6 | 11.3 | 0.00 | 0.23 | 0.00 | 65 | 1004.3 |
| 20260510160746 | 21 | 259 | 0.0 | 9.7 | 0.00 | 0.23 | 0.00 | 69 | 1004.4 |
| 20260510160227 | 21 | 242 | 0.0 | 9.7 | 0.00 | 0.23 | 0.00 | 68 | 1004.3 |
| 20260510155728 | 21 | 22 | 0.0 | 4.8 | 0.00 | 0.23 | 0.00 | 70 | 1004.4 |
| 20260510155228 | 20 | 110 | 0.0 | 3.2 | 0.00 | 0.23 | 0.00 | 71 | 1004.5 |
| 20260510154725 | 20 | 277 | 0.0 | 0.0 | 0.00 | 0.23 | 0.00 | 72 | 1004.5 |
| 20260510154207 | 20 | 339 | 0.0 | 3.2 | 0.00 | 0.23 | 0.00 | 73 | 1004.6 |
| 20260510153659 | 19 | 227 | 0.0 | 3.2 | 0.00 | 0.23 | 0.00 | 76 | 1004.5 |
| 20260510153204 | 19 | 226 | 0.0 | 0.0 | 0.00 | 0.23 | 0.00 | 77 | 1004.6 |
| 20260510152701 | 18 | 226 | 0.0 | 0.0 | 0.00 | 0.23 | 0.00 | 78 | 1004.8 |
| 20260510152201 | 18 | 226 | 0.0 | 0.0 | 0.00 | 0.23 | 0.00 | 78 | 1004.8 |
| 20260510151641 | 18 | 226 | 0.0 | 0.0 | 0.00 | 0.23 | 0.00 | 80 | 1004.7 |
| 20260510151138 | 18 | 226 | 0.0 | 4.8 | 0.00 | 0.23 | 0.00 | 79 | 1004.7 |
| 20260510145959 | 17 | 226 | 0.0 | 0.0 | 0.00 | 0.23 | 0.00 | 87 | 1004.6 |
| 20260510145443 | 16 | 226 | 0.0 | 0.0 | 0.00 | 0.23 | 0.00 | 88 | 1004.6 |
| 20260510144952 | 16 | 226 | 0.0 | 0.0 | 0.00 | 0.23 | 0.00 | 89 | 1004.6 |
| 20260510144452 | 16 | 226 | 0.0 | 0.0 | 0.00 | 0.23 | 0.00 | 90 | 1004.7 |
| 20260510143935 | 15 | 226 | 0.0 | 0.0 | 0.00 | 0.23 | 0.00 | 90 | 1004.8 |
| 20260510143424 | 15 | 226 | 0.0 | 0.0 | 0.00 | 0.23 | 0.00 | 91 | 1004.8 |
| 20260510142908 | 15 | 224 | 0.0 | 0.0 | 0.00 | 0.23 | 0.00 | 92 | 1004.8 |
| 20260510142412 | 15 | 224 | 0.0 | 1.6 | 0.00 | 0.23 | 0.00 | 92 | 1004.7 |
| 20260510141921 | 15 | 224 | 0.0 | 0.0 | 0.00 | 0.23 | 0.00 | 92 | 1004.5 |
| 20260510141427 | 14 | 224 | 0.0 | 0.0 | 0.00 | 0.23 | 0.00 | 92 | 1004.6 |
| 20260510140935 | 14 | 224 | 0.0 | 0.0 | 0.00 | 0.23 | 0.00 | 93 | 1004.5 |
| 20260510140429 | 14 | 224 | 0.0 | 0.0 | 0.00 | 0.23 | 0.00 | 94 | 1004.5 |
| 20260510135937 | 13 | 210 | 0.0 | 0.0 | 0.00 | 0.23 | 0.00 | 94 | 1004.6 |
| 20260510135431 | 13 | 196 | 0.0 | 0.0 | 0.00 | 0.23 | 0.00 | 95 | 1004.5 |
| 20260510134255 | 13 | 196 | 0.0 | 0.0 | 0.00 | 0.23 | 0.00 | 95 | 1004.5 |
| 20260510133754 | 13 | 196 | 0.0 | 0.0 | 0.00 | 0.23 | 0.00 | 95 | 1004.5 |
| 20260510133243 | 13 | 196 | 0.0 | 0.0 | 0.00 | 0.23 | 0.00 | 95 | 1004.6 |
| 20260510132753 | 13 | 196 | 0.0 | 0.0 | 0.00 | 0.23 | 0.00 | 95 | 1004.7 |
| 20260510131651 | 13 | 193 | 0.0 | 0.0 | 0.00 | 0.23 | 0.00 | 95 | 1004.7 |
| 20260510131147 | 13 | 193 | 0.0 | 0.0 | 0.00 | 0.23 | 0.00 | 95 | 1004.7 |
| 20260510130652 | 13 | 93 | 0.0 | 0.0 | 0.00 | 0.23 | 0.00 | 95 | 1004.7 |
| 20260510130135 | 12 | 93 | 0.0 | 0.0 | 0.00 | 0.23 | 0.00 | 95 | 1004.5 |
| 20260510125637 | 12 | 93 | 0.0 | 0.0 | 0.00 | 0.23 | 0.00 | 95 | 1004.3 |
| 20260510123859 | 12 | 87 | 0.0 | 0.0 | 0.00 | 0.23 | 0.00 | 95 | 1004.0 |
| 20260510123348 | 12 | 87 | 0.0 | 0.0 | 0.00 | 0.23 | 0.00 | 95 | 1004.0 |
| 20260510122851 | 12 | 87 | 0.0 | 0.0 | 0.00 | 0.23 | 0.00 | 95 | 1004.0 |
| 20260510122349 | 12 | 87 | 0.0 | 0.0 | 0.00 | 0.23 | 0.00 | 95 | 1004.1 |
| 20260510121857 | 12 | 91 | 0.0 | 0.0 | 0.00 | 0.23 | 0.00 | 95 | 1004.1 |
| 20260510121349 | 12 | 91 | 0.0 | 0.0 | 0.00 | 0.23 | 0.00 | 95 | 1003.9 |
| 20260510120844 | 11 | 91 | 0.0 | 0.0 | 0.00 | 0.23 | 0.00 | 95 | 1003.8 |
| 20260510120324 | 11 | 91 | 0.0 | 0.0 | 0.00 | 0.23 | 0.00 | 95 | 1003.8 |
| 20260510115810 | 11 | 91 | 0.0 | 0.0 | 0.00 | 0.23 | 0.00 | 95 | 1003.7 |
| 20260510115306 | 11 | 91 | 0.0 | 0.0 | 0.00 | 0.23 | 0.00 | 95 | 1003.8 |
| 20260510114802 | 11 | 91 | 0.0 | 0.0 | 0.00 | 0.23 | 0.00 | 95 | 1003.8 |
| 20260510113616 | 11 | 91 | 0.0 | 0.0 | 0.00 | 0.23 | 0.00 | 95 | 1003.9 |
| 20260510113109 | 11 | 91 | 0.0 | 0.0 | 0.00 | 0.23 | 0.00 | 95 | 1003.8 |
| 20260510111957 | 11 | 91 | 0.0 | 0.0 | 0.00 | 0.23 | 0.00 | 95 | 1003.8 |
| 20260510111507 | 11 | 91 | 0.0 | 0.0 | 0.00 | 0.23 | 0.00 | 95 | 1003.7 |
| 20260510111009 | 11 | 91 | 0.0 | 0.0 | 0.00 | 0.23 | 0.00 | 95 | 1003.6 |
| 20260510110500 | 11 | 91 | 0.0 | 0.0 | 0.00 | 0.23 | 0.00 | 95 | 1003.4 |
| 20260510110001 | 11 | 91 | 0.0 | 0.0 | 0.00 | 0.23 | 0.00 | 95 | 1003.2 |
| 20260510105509 | 11 | 91 | 0.0 | 0.0 | 0.00 | 0.23 | 0.00 | 95 | 1003.2 |
| 20260510104951 | 11 | 92 | 0.0 | 0.0 | 0.00 | 0.23 | 0.00 | 95 | 1003.2 |
| 20260510104453 | 11 | 92 | 0.0 | 0.0 | 0.00 | 0.23 | 0.00 | 95 | 1003.0 |
| 20260510103301 | 11 | 92 | 0.0 | 0.0 | 0.00 | 0.23 | 0.00 | 95 | 1003.1 |
| 20260510102800 | 11 | 92 | 0.0 | 0.0 | 0.00 | 0.23 | 0.00 | 95 | 1003.3 |
| 20260510101648 | 11 | 92 | 0.0 | 0.0 | 0.00 | 0.23 | 0.00 | 95 | 1003.2 |
| 20260510101130 | 11 | 92 | 0.0 | 0.0 | 0.00 | 0.23 | 0.00 | 95 | 1003.1 |
| 20260510100619 | 11 | 92 | 0.0 | 0.0 | 0.00 | 0.23 | 0.00 | 95 | 1003.3 |
| 20260510100114 | 11 | 92 | 0.0 | 0.0 | 0.00 | 0.23 | 0.00 | 95 | 1003.3 |
| 20260510095622 | 11 | 92 | 0.0 | 0.0 | 0.00 | 0.23 | 0.00 | 95 | 1003.1 |
| 20260510095110 | 11 | 92 | 0.0 | 0.0 | 0.00 | 0.23 | 0.00 | 95 | 1003.2 |
| 20260510094611 | 11 | 92 | 0.0 | 0.0 | 0.00 | 0.23 | 0.00 | 95 | 1003.2 |
| 20260510093448 | 10 | 92 | 0.0 | 0.0 | 0.00 | 0.23 | 0.00 | 95 | 1003.2 |
| 20260510092941 | 10 | 92 | 0.0 | 0.0 | 0.00 | 0.23 | 0.00 | 95 | 1003.3 |
| 20260510092439 | 10 | 92 | 0.0 | 0.0 | 0.00 | 0.23 | 0.00 | 95 | 1003.2 |
| 20260510091930 | 10 | 92 | 0.0 | 0.0 | 0.00 | 0.23 | 0.00 | 95 | 1003.4 |
| 20260510091430 | 10 | 92 | 0.0 | 0.0 | 0.00 | 0.23 | 0.00 | 95 | 1003.4 |
| 20260510090928 | 10 | 92 | 0.0 | 0.0 | 0.00 | 0.23 | 0.00 | 94 | 1003.5 |
| 20260510090423 | 10 | 92 | 0.0 | 0.0 | 0.00 | 0.23 | 0.00 | 95 | 1003.3 |
| 20260510085313 | 10 | 92 | 0.0 | 0.0 | 0.00 | 0.23 | 0.00 | 94 | 1003.8 |
| 20260510084754 | 10 | 92 | 0.0 | 0.0 | 0.00 | 0.23 | 0.00 | 95 | 1003.6 |
| 20260510084249 | 10 | 92 | 0.0 | 0.0 | 0.00 | 0.23 | 0.00 | 94 | 1003.6 |
| 20260510083731 | 10 | 92 | 0.0 | 0.0 | 0.00 | 0.23 | 0.00 | 94 | 1003.8 |
| 20260510082603 | 10 | 92 | 0.0 | 0.0 | 0.00 | 0.23 | 0.00 | 94 | 1003.6 |
| 20260510082106 | 10 | 92 | 0.0 | 1.6 | 0.00 | 0.23 | 0.00 | 94 | 1003.3 |
| 20260510081613 | 10 | 92 | 0.0 | 0.0 | 0.00 | 0.23 | 0.00 | 94 | 1003.5 |
| 20260510081054 | 10 | 92 | 0.0 | 0.0 | 0.00 | 0.23 | 0.00 | 94 | 1002.9 |
| 20260510080548 | 10 | 92 | 0.0 | 0.0 | 0.00 | 0.23 | 0.00 | 94 | 1002.9 |
| 20260510080034 | 10 | 92 | 0.0 | 0.0 | 0.00 | 0.23 | 0.00 | 94 | 1002.8 |
| 20260510075522 | 10 | 92 | 0.0 | 0.0 | 0.00 | 0.23 | 0.00 | 94 | 1002.7 |
| 20260510074406 | 10 | 92 | 0.0 | 0.0 | 0.00 | 0.23 | 0.00 | 94 | 1002.7 |
| 20260510073902 | 10 | 92 | 0.0 | 0.0 | 0.00 | 0.23 | 0.00 | 94 | 1002.7 |
| 20260510073346 | 10 | 92 | 0.0 | 0.0 | 0.00 | 0.23 | 0.00 | 94 | 1002.6 |
| 20260510072838 | 10 | 92 | 0.0 | 0.0 | 0.00 | 0.23 | 0.00 | 94 | 1002.6 |
| 20260510072321 | 10 | 92 | 0.0 | 0.0 | 0.00 | 0.23 | 0.00 | 94 | 1002.6 |
| 20260510071823 | 10 | 92 | 0.0 | 0.0 | 0.00 | 0.23 | 0.00 | 94 | 1002.6 |
| 20260510071331 | 10 | 92 | 0.0 | 0.0 | 0.00 | 0.23 | 0.00 | 94 | 1002.6 |
| 20260510070814 | 10 | 92 | 0.0 | 0.0 | 0.00 | 0.23 | 0.00 | 94 | 1002.7 |
| 20260510065703 | 10 | 92 | 0.0 | 0.0 | 0.00 | 0.23 | 0.00 | 94 | 1002.7 |
| 20260510065200 | 10 | 92 | 0.0 | 0.0 | 0.00 | 0.23 | 0.00 | 93 | 1002.8 |
| 20260510064708 | 10 | 92 | 0.0 | 0.0 | 0.00 | 0.23 | 0.00 | 93 | 1002.8 |
| 20260510064152 | 10 | 92 | 0.0 | 0.0 | 0.00 | 0.23 | 0.00 | 93 | 1002.7 |
| 20260510063633 | 10 | 92 | 0.0 | 0.0 | 0.00 | 0.23 | 0.00 | 93 | 1002.8 |
| 20260510063141 | 11 | 92 | 0.0 | 0.0 | 0.00 | 0.23 | 0.00 | 94 | 1002.7 |
| 20260510062634 | 11 | 92 | 0.0 | 0.0 | 0.00 | 0.23 | 0.00 | 94 | 1002.6 |
| 20260510062126 | 11 | 92 | 0.0 | 0.0 | 0.00 | 0.23 | 0.00 | 94 | 1002.5 |
| 20260510061631 | 11 | 92 | 0.0 | 0.0 | 0.00 | 0.23 | 0.00 | 94 | 1002.5 |
| 20260510061129 | 11 | 92 | 0.0 | 0.0 | 0.00 | 0.23 | 0.00 | 94 | 1002.4 |
| 20260510060632 | 11 | 92 | 0.0 | 0.0 | 0.00 | 0.23 | 0.00 | 94 | 1002.4 |
| 20260510060117 | 10 | 92 | 0.0 | 0.0 | 0.00 | 0.23 | 0.00 | 94 | 1002.4 |
| 20260510055627 | 10 | 92 | 0.0 | 0.0 | 0.00 | 0.23 | 0.00 | 94 | 1002.4 |
| 20260510055119 | 10 | 92 | 0.0 | 0.0 | 0.00 | 0.23 | 0.00 | 93 | 1002.5 |
| 20260510054603 | 10 | 92 | 0.0 | 0.0 | 0.00 | 0.23 | 0.00 | 93 | 1002.5 |
| 20260510054054 | 10 | 92 | 0.0 | 0.0 | 0.00 | 0.23 | 0.00 | 93 | 1002.5 |
| 20260510052319 | 10 | 92 | 0.0 | 0.0 | 0.00 | 0.23 | 0.00 | 93 | 1002.5 |
| 20260510051821 | 10 | 92 | 0.0 | 0.0 | 0.00 | 0.23 | 0.00 | 93 | 1002.6 |
| 20260510050049 | 10 | 92 | 0.0 | 0.0 | 0.00 | 0.23 | 0.00 | 93 | 1002.7 |
| 20260510044934 | 10 | 92 | 0.0 | 0.0 | 0.00 | 0.23 | 0.00 | 93 | 1002.7 |
| 20260510044417 | 10 | 92 | 0.0 | 0.0 | 0.00 | 0.23 | 0.00 | 93 | 1002.7 |
| 20260510043906 | 10 | 92 | 0.0 | 0.0 | 0.00 | 0.23 | 0.00 | 93 | 1002.8 |
| 20260510043351 | 10 | 92 | 0.0 | 0.0 | 0.00 | 0.23 | 0.00 | 93 | 1002.8 |
| 20260510042834 | 10 | 92 | 0.0 | 0.0 | 0.00 | 0.23 | 0.00 | 93 | 1002.9 |
| 20260510041714 | 10 | 92 | 0.0 | 0.0 | 0.00 | 0.23 | 0.00 | 93 | 1002.8 |
| 20260510041158 | 10 | 92 | 0.0 | 0.0 | 0.00 | 0.23 | 0.00 | 93 | 1002.9 |
| 20260510035433 | 10 | 92 | 0.0 | 0.0 | 0.00 | 0.23 | 0.25 | 93 | 1002.7 |
| 20260510034311 | 10 | 92 | 0.0 | 0.0 | 0.00 | 0.23 | 0.23 | 92 | 1002.7 |
| 20260510033129 | 10 | 92 | 0.0 | 0.0 | 0.00 | 0.23 | 0.23 | 92 | 1002.5 |
| 20260510032637 | 10 | 92 | 0.0 | 0.0 | 0.00 | 0.23 | 0.23 | 92 | 1002.5 |
| 20260510032135 | 10 | 92 | 0.0 | 0.0 | 0.00 | 0.23 | 0.23 | 92 | 1002.5 |
| 20260510031646 | 10 | 92 | 0.0 | 0.0 | 0.00 | 0.23 | 0.23 | 91 | 1002.4 |
| 20260510031152 | 10 | 92 | 0.0 | 0.0 | 0.00 | 0.23 | 0.23 | 92 | 1002.4 |
| 20260510030638 | 10 | 92 | 0.0 | 0.0 | 0.00 | 0.23 | 0.23 | 91 | 1002.4 |
| 20260510030135 | 10 | 92 | 0.0 | 0.0 | 0.00 | 0.23 | 0.23 | 91 | 1002.3 |
| 20260510025625 | 10 | 92 | 0.0 | 0.0 | 0.00 | 0.23 | 0.23 | 91 | 1002.3 |
| 20260510025135 | 10 | 92 | 0.0 | 0.0 | 0.00 | 0.23 | 0.23 | 91 | 1002.3 |
| 20260510024629 | 10 | 92 | 0.0 | 0.0 | 0.00 | 0.23 | 0.23 | 90 | 1002.3 |
| 20260510024124 | 10 | 92 | 0.0 | 0.0 | 0.00 | 0.23 | 0.23 | 90 | 1002.3 |
| 20260510022944 | 10 | 92 | 0.0 | 0.0 | 0.00 | 0.23 | 0.23 | 90 | 1002.3 |
| 20260510022442 | 10 | 92 | 0.0 | 0.0 | 0.00 | 0.23 | 0.23 | 90 | 1002.4 |
| 20260510021943 | 10 | 92 | 0.0 | 0.0 | 0.00 | 0.23 | 0.23 | 90 | 1002.3 |
| 20260510021437 | 10 | 92 | 0.0 | 0.0 | 0.00 | 0.23 | 0.23 | 89 | 1002.3 |
| 20260510020942 | 10 | 92 | 0.0 | 0.0 | 0.00 | 0.23 | 0.23 | 89 | 1002.1 |
| 20260510015806 | 10 | 92 | 0.0 | 0.0 | 0.00 | 0.23 | 0.23 | 89 | 1002.1 |
| 20260510015301 | 11 | 92 | 0.0 | 0.0 | 0.00 | 0.23 | 0.23 | 89 | 1002.2 |
| 20260510014123 | 11 | 92 | 0.0 | 0.0 | 0.00 | 0.23 | 0.23 | 89 | 1002.2 |
| 20260510012338 | 11 | 92 | 0.0 | 0.0 | 0.00 | 0.23 | 0.23 | 88 | 1002.1 |
| 20260510011847 | 11 | 92 | 0.0 | 0.0 | 0.00 | 0.23 | 0.23 | 88 | 1002.1 |
| 20260510011356 | 11 | 92 | 0.0 | 0.0 | 0.00 | 0.23 | 0.23 | 88 | 1002.2 |
| 20260510010217 | 12 | 92 | 0.0 | 0.0 | 0.00 | 0.23 | 0.23 | 88 | 1002.0 |
| 20260510005722 | 12 | 92 | 0.0 | 0.0 | 0.00 | 0.23 | 0.23 | 88 | 1001.9 |
| 20260510005215 | 12 | 92 | 0.0 | 0.0 | 0.00 | 0.23 | 0.23 | 88 | 1001.7 |
| 20260510004024 | 12 | 92 | 0.0 | 0.0 | 0.00 | 0.23 | 0.23 | 88 | 1001.6 |
| 20260510003509 | 12 | 92 | 0.0 | 0.0 | 0.00 | 0.23 | 0.23 | 88 | 1001.6 |
| 20260510002959 | 12 | 92 | 0.0 | 0.0 | 0.00 | 0.23 | 0.23 | 88 | 1001.6 |
| 20260510002446 | 12 | 92 | 0.0 | 0.0 | 0.00 | 0.23 | 0.23 | 88 | 1001.6 |
| 20260510001944 | 13 | 92 | 0.0 | 0.0 | 0.00 | 0.23 | 0.23 | 88 | 1001.5 |
| 20260510001428 | 13 | 92 | 0.0 | 0.0 | 0.00 | 0.23 | 0.23 | 89 | 1001.6 |
| 20260510000909 | 13 | 92 | 0.0 | 0.0 | 0.00 | 0.23 | 0.23 | 88 | 1001.6 |
| 20260510000411 | 13 | 92 | 0.0 | 0.0 | 0.00 | 0.23 | 0.23 | 89 | 1001.6 |
| 20260509235911 | 13 | 92 | 0.0 | 0.0 | 0.00 | 0.23 | 0.23 | 89 | 1001.6 |
| 20260509235413 | 13 | 92 | 0.0 | 0.0 | 0.00 | 0.23 | 0.23 | 89 | 1001.6 |
| 20260509234902 | 13 | 92 | 0.0 | 0.0 | 0.00 | 0.23 | 0.23 | 89 | 1001.6 |
| 20260509234343 | 13 | 92 | 0.0 | 0.0 | 0.00 | 0.23 | 0.23 | 89 | 1001.5 |
| 20260509233838 | 13 | 92 | 0.0 | 0.0 | 0.00 | 0.23 | 0.23 | 89 | 1001.4 |
| 20260509232729 | 13 | 92 | 0.0 | 0.0 | 0.00 | 0.23 | 0.23 | 89 | 1001.3 |
| 20260509232220 | 13 | 92 | 0.0 | 0.0 | 0.00 | 0.23 | 0.23 | 89 | 1001.3 |
| 20260509231714 | 13 | 282 | 0.0 | 0.0 | 0.00 | 0.23 | 0.23 | 89 | 1001.3 |
| 20260509231156 | 13 | 282 | 0.0 | 0.0 | 0.00 | 0.23 | 0.23 | 90 | 1001.2 |
| 20260509230701 | 13 | 282 | 0.0 | 0.0 | 0.00 | 0.23 | 0.23 | 89 | 1001.3 |
| 20260509230155 | 13 | 282 | 0.0 | 0.0 | 0.00 | 0.23 | 0.23 | 89 | 1001.3 |
| 20260509225053 | 13 | 72 | 0.0 | 0.0 | 0.00 | 0.23 | 0.23 | 89 | 1001.5 |
| 20260509224539 | 13 | 72 | 0.0 | 0.0 | 0.00 | 0.23 | 0.23 | 89 | 1001.6 |
| 20260509223430 | 14 | 72 | 0.0 | 0.0 | 0.10 | 0.23 | 0.23 | 90 | 1001.5 |
| 20260509222932 | 14 | 72 | 0.0 | 0.0 | 0.10 | 0.23 | 0.23 | 91 | 1001.5 |
| 20260509222414 | 13 | 72 | 0.0 | 0.0 | 0.00 | 0.20 | 0.20 | 91 | 1001.5 |
| 20260509221858 | 13 | 72 | 0.0 | 0.0 | 0.00 | 0.20 | 0.20 | 91 | 1001.7 |
| 20260509221349 | 13 | 72 | 0.0 | 0.0 | 0.00 | 0.20 | 0.20 | 90 | 1001.8 |
| 20260509215003 | 13 | 72 | 0.0 | 0.0 | 0.15 | 0.15 | 0.15 | 90 | 1001.9 |
| 20260509214504 | 13 | 72 | 0.0 | 0.0 | 0.13 | 0.15 | 0.15 | 90 | 1001.9 |
| 20260509214006 | 13 | 72 | 0.0 | 0.0 | 0.13 | 0.10 | 0.13 | 89 | 1001.9 |
| 20260509213459 | 13 | 72 | 0.0 | 0.0 | 0.20 | 0.10 | 0.13 | 89 | 1001.9 |
| 20260509212958 | 13 | 323 | 0.0 | 0.0 | 0.23 | 0.10 | 0.13 | 88 | 1001.9 |
| 20260509211827 | 13 | 323 | 0.0 | 0.0 | 0.13 | 0.08 | 0.08 | 86 | 1002.1 |
| 20260509211324 | 14 | 323 | 0.0 | 0.0 | 0.15 | 0.08 | 0.08 | 86 | 1001.8 |
| 20260509210807 | 14 | 323 | 0.0 | 0.0 | 0.15 | 0.08 | 0.08 | 85 | 1001.9 |
| 20260509210259 | 14 | 323 | 0.0 | 0.0 | 0.00 | 0.05 | 0.05 | 85 | 1001.7 |
| 20260509205126 | 14 | 323 | 0.0 | 3.2 | 0.00 | 0.03 | 0.03 | 83 | 1002.0 |
| 20260509204632 | 14 | 323 | 0.0 | 0.0 | 0.00 | 0.03 | 0.03 | 83 | 1001.8 |
| 20260509204140 | 14 | 323 | 0.0 | 0.0 | 0.00 | 0.03 | 0.03 | 83 | 1001.7 |
| 20260509203639 | 14 | 323 | 0.0 | 0.0 | 0.00 | 0.03 | 0.03 | 83 | 1001.7 |
| 20260509203140 | 14 | 323 | 0.0 | 0.0 | 0.00 | 0.03 | 0.03 | 83 | 1001.5 |
| 20260509202624 | 14 | 323 | 0.0 | 0.0 | 0.00 | 0.03 | 0.03 | 83 | 1001.5 |
| 20260509202122 | 14 | 323 | 0.0 | 0.0 | 0.00 | 0.03 | 0.03 | 83 | 1001.8 |
| 20260509201614 | 14 | 339 | 0.0 | 0.0 | 0.00 | 0.03 | 0.03 | 83 | 1001.8 |
| 20260509201104 | 14 | 319 | 0.0 | 0.0 | 0.00 | 0.03 | 0.03 | 83 | 1001.8 |
| 20260509200610 | 14 | 342 | 0.0 | 3.2 | 0.00 | 0.03 | 0.03 | 83 | 1001.8 |
| 20260509200100 | 14 | 355 | 0.0 | 1.6 | 0.00 | 0.03 | 0.03 | 83 | 1001.9 |
| 20260509195543 | 14 | 355 | 0.0 | 0.0 | 0.00 | 0.03 | 0.03 | 83 | 1002.0 |
| 20260509195053 | 14 | 218 | 0.0 | 0.0 | 0.00 | 0.03 | 0.03 | 82 | 1002.1 |
| 20260509194538 | 14 | 217 | 0.0 | 0.0 | 0.00 | 0.03 | 0.03 | 82 | 1002.2 |
| 20260509194035 | 15 | 218 | 0.0 | 9.7 | 0.00 | 0.03 | 0.03 | 81 | 1002.3 |
| 20260509193543 | 15 | 209 | 0.0 | 9.7 | 0.00 | 0.03 | 0.03 | 80 | 1002.5 |
| 20260509193028 | 15 | 198 | 0.0 | 0.0 | 0.00 | 0.03 | 0.03 | 80 | 1002.5 |
| 20260509192510 | 15 | 350 | 1.6 | 11.3 | 0.00 | 0.03 | 0.03 | 79 | 1002.5 |
| 20260509192013 | 15 | 204 | 1.6 | 9.7 | 0.00 | 0.03 | 0.03 | 79 | 1002.6 |
| 20260509191455 | 15 | 197 | 0.0 | 9.7 | 0.00 | 0.03 | 0.03 | 77 | 1002.5 |
| 20260509190959 | 15 | 167 | 0.0 | 8.0 | 0.00 | 0.03 | 0.03 | 77 | 1002.5 |